| time (UTC) | temp C | wind direction | speed KPH | gust KPH | rain 1hr cm | rain 24hr cm | rain mn cm | humidity % | barometer mb |
| 20260508070505 | 3 | 328 | 0.0 | 3.2 | 0.00 | 0.00 | 0.00 | 76 | 1003.9 |
| 20260508070011 | 3 | 237 | 1.6 | 3.2 | 0.00 | 0.00 | 0.00 | 78 | 1003.9 |
| 20260508065507 | 3 | 313 | 0.0 | 3.2 | 0.00 | 0.00 | 0.00 | 79 | 1003.9 |
| 20260508065004 | 3 | 291 | 0.0 | 3.2 | 0.00 | 0.00 | 0.00 | 79 | 1003.9 |
| 20260508064528 | 3 | 291 | 0.0 | 3.2 | 0.00 | 0.00 | 0.00 | 80 | 1003.8 |
| 20260508064007 | 4 | 291 | 0.0 | 3.2 | 0.00 | 0.00 | 0.00 | 80 | 1003.7 |
| 20260508063508 | 4 | 290 | 0.0 | 3.2 | 0.00 | 0.00 | 0.00 | 80 | 1003.8 |
| 20260508063024 | 4 | 291 | 0.0 | 3.2 | 0.00 | 0.00 | 0.00 | 80 | 1003.8 |
| 20260508062509 | 4 | 336 | 0.0 | 3.2 | 0.00 | 0.00 | 0.00 | 81 | 1003.9 |
| 20260508062012 | 4 | 336 | 0.0 | 4.8 | 0.00 | 0.00 | 0.00 | 81 | 1003.9 |
| 20260508061527 | 4 | 351 | 0.0 | 4.8 | 0.00 | 0.00 | 0.00 | 82 | 1003.8 |
| 20260508061013 | 5 | 11 | 1.6 | 4.8 | 0.00 | 0.00 | 0.00 | 83 | 1003.8 |
| 20260508060511 | 5 | 221 | 0.0 | 3.2 | 0.00 | 0.00 | 0.00 | 83 | 1003.8 |
| 20260508060020 | 5 | 221 | 0.0 | 3.2 | 0.00 | 0.00 | 0.00 | 83 | 1003.9 |
| 20260508055504 | 5 | 221 | 0.0 | 1.6 | 0.00 | 0.00 | 0.00 | 82 | 1003.9 |
| 20260508055009 | 5 | 221 | 0.0 | 3.2 | 0.00 | 0.00 | 0.00 | 82 | 1003.9 |
| 20260508054524 | 5 | 221 | 0.0 | 3.2 | 0.00 | 0.00 | 0.00 | 83 | 1003.8 |
| 20260508054005 | 5 | 221 | 0.0 | 3.2 | 0.00 | 0.00 | 0.00 | 82 | 1003.8 |
| 20260508053506 | 6 | 221 | 0.0 | 4.8 | 0.00 | 0.00 | 0.00 | 82 | 1003.8 |
| 20260508053020 | 6 | 242 | 0.0 | 9.7 | 0.00 | 0.00 | 0.00 | 82 | 1003.8 |
| 20260508052511 | 6 | 222 | 3.2 | 9.7 | 0.00 | 0.00 | 0.00 | 82 | 1003.8 |
| 20260508052010 | 6 | 270 | 1.6 | 6.4 | 0.00 | 0.00 | 0.00 | 82 | 1003.8 |
| 20260508051526 | 6 | 261 | 3.2 | 4.8 | 0.00 | 0.00 | 0.00 | 82 | 1003.8 |
| 20260508051008 | 6 | 213 | 0.0 | 3.2 | 0.00 | 0.00 | 0.00 | 82 | 1003.8 |
| 20260508050510 | 6 | 204 | 1.6 | 4.8 | 0.00 | 0.00 | 0.00 | 83 | 1003.7 |
| 20260508050030 | 6 | 242 | 0.0 | 4.8 | 0.00 | 0.00 | 0.00 | 83 | 1003.7 |
| 20260508045510 | 6 | 246 | 1.6 | 3.2 | 0.00 | 0.00 | 0.00 | 83 | 1003.7 |
| 20260508045013 | 6 | 206 | 1.6 | 3.2 | 0.00 | 0.00 | 0.00 | 83 | 1003.7 |
| 20260508044515 | 6 | 201 | 1.6 | 4.8 | 0.00 | 0.00 | 0.00 | 84 | 1003.7 |
| 20260508044007 | 6 | 221 | 1.6 | 4.8 | 0.00 | 0.00 | 0.00 | 84 | 1003.7 |
| 20260508043506 | 6 | 238 | 0.0 | 3.2 | 0.00 | 0.00 | 0.00 | 84 | 1003.7 |
| 20260508043021 | 6 | 238 | 0.0 | 3.2 | 0.00 | 0.00 | 0.00 | 84 | 1003.6 |
| 20260508042506 | 6 | 238 | 1.6 | 3.2 | 0.00 | 0.00 | 0.00 | 85 | 1003.7 |
| 20260508042007 | 6 | 238 | 1.6 | 3.2 | 0.00 | 0.00 | 0.00 | 85 | 1003.7 |
| 20260508041522 | 6 | 229 | 1.6 | 3.2 | 0.00 | 0.00 | 0.00 | 86 | 1003.6 |
| 20260508041008 | 6 | 221 | 1.6 | 3.2 | 0.00 | 0.00 | 0.00 | 86 | 1003.6 |
| 20260508040510 | 6 | 194 | 1.6 | 3.2 | 0.00 | 0.00 | 0.00 | 87 | 1003.6 |
| 20260508040007 | 6 | 247 | 0.0 | 3.2 | 0.00 | 0.00 | 0.00 | 87 | 1003.6 |
| 20260508035505 | 6 | 247 | 1.6 | 3.2 | 0.00 | 0.00 | 0.00 | 87 | 1003.6 |
| 20260508035006 | 7 | 244 | 0.0 | 3.2 | 0.00 | 0.00 | 0.00 | 86 | 1003.6 |
| 20260508034517 | 7 | 244 | 0.0 | 3.2 | 0.00 | 0.00 | 0.00 | 86 | 1003.6 |
| 20260508034005 | 7 | 244 | 1.6 | 4.8 | 0.00 | 0.00 | 0.00 | 86 | 1003.6 |
| 20260508033503 | 7 | 244 | 0.0 | 4.8 | 0.00 | 0.00 | 0.00 | 86 | 1003.6 |
| 20260508033017 | 7 | 232 | 3.2 | 4.8 | 0.00 | 0.00 | 0.00 | 86 | 1003.6 |
| 20260508032508 | 7 | 233 | 3.2 | 4.8 | 0.00 | 0.00 | 0.00 | 86 | 1003.6 |
| 20260508032006 | 7 | 226 | 1.6 | 4.8 | 0.00 | 0.00 | 0.00 | 86 | 1003.6 |
| 20260508031523 | 7 | 227 | 1.6 | 4.8 | 0.00 | 0.00 | 0.00 | 86 | 1003.6 |
| 20260508031007 | 7 | 229 | 3.2 | 4.8 | 0.00 | 0.00 | 0.00 | 86 | 1003.6 |
| 20260508030509 | 7 | 229 | 1.6 | 4.8 | 0.00 | 0.00 | 0.00 | 85 | 1003.6 |
| 20260508030027 | 7 | 243 | 3.2 | 4.8 | 0.00 | 0.00 | 0.00 | 85 | 1003.6 |
| 20260508025512 | 7 | 264 | 1.6 | 4.8 | 0.00 | 0.00 | 0.00 | 84 | 1003.7 |
| 20260508025003 | 7 | 253 | 1.6 | 3.2 | 0.00 | 0.00 | 0.00 | 83 | 1003.6 |
| 20260508024517 | 7 | 221 | 0.0 | 3.2 | 0.00 | 0.00 | 0.00 | 83 | 1003.7 |
| 20260508024004 | 7 | 221 | 0.0 | 3.2 | 0.00 | 0.00 | 0.00 | 82 | 1003.6 |
| 20260508023504 | 7 | 221 | 1.6 | 3.2 | 0.00 | 0.00 | 0.00 | 82 | 1003.6 |
| 20260508023016 | 7 | 229 | 1.6 | 3.2 | 0.00 | 0.00 | 0.00 | 82 | 1003.6 |
| 20260508022503 | 7 | 178 | 0.0 | 4.8 | 0.00 | 0.00 | 0.00 | 81 | 1003.6 |
| 20260508022007 | 7 | 178 | 1.6 | 4.8 | 0.00 | 0.00 | 0.00 | 81 | 1003.5 |
| 20260508021520 | 8 | 196 | 0.0 | 4.8 | 0.00 | 0.00 | 0.00 | 80 | 1003.6 |
| 20260508021008 | 8 | 239 | 1.6 | 4.8 | 0.00 | 0.00 | 0.00 | 79 | 1003.6 |
| 20260508020508 | 8 | 236 | 1.6 | 8.0 | 0.00 | 0.00 | 0.00 | 78 | 1003.6 |
| 20260508020025 | 8 | 227 | 3.2 | 8.0 | 0.00 | 0.00 | 0.00 | 77 | 1003.4 |
| 20260508015512 | 8 | 195 | 3.2 | 9.7 | 0.00 | 0.00 | 0.00 | 76 | 1003.3 |
| 20260508015010 | 8 | 175 | 3.2 | 9.7 | 0.00 | 0.00 | 0.00 | 75 | 1003.4 |
| 20260508014528 | 8 | 164 | 3.2 | 8.0 | 0.00 | 0.00 | 0.00 | 74 | 1003.4 |
| 20260508014010 | 8 | 189 | 1.6 | 4.8 | 0.00 | 0.00 | 0.00 | 72 | 1003.4 |
| 20260508013503 | 8 | 144 | 0.0 | 4.8 | 0.00 | 0.00 | 0.00 | 72 | 1003.4 |
| 20260508013013 | 8 | 198 | 1.6 | 4.8 | 0.00 | 0.00 | 0.00 | 71 | 1003.2 |
| 20260508012506 | 8 | 178 | 1.6 | 8.0 | 0.00 | 0.00 | 0.00 | 70 | 1003.3 |
| 20260508012003 | 8 | 263 | 1.6 | 8.0 | 0.00 | 0.00 | 0.00 | 70 | 1003.2 |
| 20260508011517 | 8 | 221 | 1.6 | 8.0 | 0.00 | 0.00 | 0.00 | 69 | 1003.0 |
| 20260508011007 | 8 | 189 | 3.2 | 6.4 | 0.00 | 0.00 | 0.00 | 68 | 1002.9 |
| 20260508010506 | 8 | 232 | 1.6 | 11.3 | 0.00 | 0.00 | 0.00 | 68 | 1002.9 |
| 20260508010023 | 9 | 211 | 1.6 | 12.9 | 0.00 | 0.00 | 0.00 | 67 | 1002.9 |
| 20260508005507 | 9 | 202 | 4.8 | 12.9 | 0.00 | 0.00 | 0.00 | 67 | 1002.9 |
| 20260508005011 | 9 | 191 | 4.8 | 12.9 | 0.00 | 0.00 | 0.00 | 66 | 1002.8 |
| 20260508004530 | 9 | 198 | 1.6 | 11.3 | 0.00 | 0.00 | 0.00 | 66 | 1002.9 |
| 20260508004011 | 9 | 217 | 3.2 | 11.3 | 0.00 | 0.00 | 0.00 | 66 | 1002.8 |
| 20260508003514 | 9 | 211 | 3.2 | 12.9 | 0.00 | 0.00 | 0.00 | 66 | 1002.7 |
| 20260508003030 | 9 | 142 | 4.8 | 12.9 | 0.00 | 0.00 | 0.00 | 66 | 1002.7 |
| 20260508002505 | 9 | 163 | 3.2 | 11.3 | 0.00 | 0.00 | 0.00 | 66 | 1002.6 |
| 20260508002004 | 9 | 175 | 6.4 | 11.3 | 0.00 | 0.00 | 0.00 | 65 | 1002.6 |
| 20260508001535 | 9 | 198 | 3.2 | 9.7 | 0.00 | 0.00 | 0.00 | 65 | 1002.6 |
| 20260508001009 | 9 | 188 | 4.8 | 9.7 | 0.00 | 0.00 | 0.00 | 65 | 1002.5 |
| 20260508000505 | 9 | 192 | 3.2 | 11.3 | 0.00 | 0.00 | 0.00 | 65 | 1002.5 |
| 20260508000019 | 10 | 198 | 6.4 | 14.5 | 0.00 | 0.00 | 0.00 | 64 | 1002.6 |
| 20260507235507 | 10 | 255 | 9.7 | 14.5 | 0.00 | 0.00 | 0.00 | 64 | 1002.5 |
| 20260507235006 | 10 | 249 | 8.0 | 14.5 | 0.00 | 0.00 | 0.00 | 64 | 1002.4 |
| 20260507234524 | 10 | 226 | 6.4 | 16.1 | 0.00 | 0.00 | 0.00 | 63 | 1002.3 |
| 20260507234007 | 10 | 210 | 8.0 | 16.1 | 0.00 | 0.00 | 0.00 | 63 | 1002.3 |
| 20260507233507 | 10 | 227 | 6.4 | 12.9 | 0.00 | 0.00 | 0.00 | 62 | 1002.3 |
| 20260507233032 | 10 | 201 | 8.0 | 11.3 | 0.00 | 0.00 | 0.00 | 63 | 1002.3 |
| 20260507232511 | 10 | 250 | 4.8 | 14.5 | 0.00 | 0.00 | 0.00 | 62 | 1002.2 |
| 20260507232013 | 10 | 259 | 6.4 | 14.5 | 0.00 | 0.00 | 0.00 | 59 | 1002.2 |
| 20260507231529 | 10 | 231 | 4.8 | 12.9 | 0.00 | 0.00 | 0.00 | 58 | 1002.1 |
| 20260507231006 | 11 | 233 | 6.4 | 12.9 | 0.00 | 0.00 | 0.00 | 56 | 1002.1 |
| 20260507230504 | 11 | 231 | 8.0 | 12.9 | 0.00 | 0.00 | 0.00 | 55 | 1002.0 |
| 20260507230027 | 11 | 246 | 8.0 | 14.5 | 0.00 | 0.00 | 0.00 | 55 | 1002.1 |
| 20260507225505 | 11 | 229 | 6.4 | 14.5 | 0.00 | 0.00 | 0.00 | 57 | 1002.1 |
| 20260507225010 | 11 | 226 | 6.4 | 14.5 | 0.00 | 0.00 | 0.00 | 57 | 1002.0 |
| 20260507224529 | 11 | 251 | 8.0 | 22.5 | 0.00 | 0.00 | 0.00 | 57 | 1002.1 |
| 20260507224007 | 11 | 219 | 11.3 | 22.5 | 0.00 | 0.00 | 0.00 | 57 | 1002.1 |
| 20260507223507 | 11 | 234 | 8.0 | 19.3 | 0.00 | 0.00 | 0.00 | 57 | 1001.9 |
| 20260507223027 | 11 | 250 | 11.3 | 19.3 | 0.00 | 0.00 | 0.00 | 57 | 1001.9 |
| 20260507222509 | 11 | 254 | 12.9 | 19.3 | 0.00 | 0.00 | 0.00 | 57 | 1001.9 |
| 20260507222008 | 11 | 221 | 6.4 | 19.3 | 0.00 | 0.00 | 0.00 | 57 | 1001.9 |
| 20260507221527 | 11 | 228 | 8.0 | 22.5 | 0.00 | 0.00 | 0.00 | 57 | 1001.8 |
| 20260507221008 | 11 | 242 | 12.9 | 22.5 | 0.00 | 0.00 | 0.00 | 56 | 1001.8 |
| 20260507220510 | 11 | 235 | 12.9 | 20.9 | 0.00 | 0.00 | 0.00 | 55 | 1001.8 |
| 20260507220019 | 11 | 245 | 11.3 | 22.5 | 0.00 | 0.00 | 0.00 | 54 | 1001.8 |
| 20260507215508 | 11 | 231 | 12.9 | 22.5 | 0.00 | 0.00 | 0.00 | 54 | 1001.8 |
| 20260507215008 | 11 | 230 | 12.9 | 20.9 | 0.00 | 0.00 | 0.00 | 54 | 1001.8 |
| 20260507214519 | 11 | 264 | 8.0 | 20.9 | 0.00 | 0.00 | 0.00 | 55 | 1001.8 |
| 20260507214006 | 11 | 250 | 9.7 | 20.9 | 0.00 | 0.00 | 0.00 | 54 | 1001.9 |
| 20260507213508 | 11 | 259 | 8.0 | 24.1 | 0.00 | 0.00 | 0.00 | 54 | 1001.9 |
| 20260507213031 | 11 | 223 | 12.9 | 24.1 | 0.00 | 0.00 | 0.00 | 54 | 1001.8 |
| 20260507212508 | 11 | 233 | 8.0 | 17.7 | 0.00 | 0.00 | 0.00 | 54 | 1001.8 |
| 20260507212011 | 11 | 265 | 9.7 | 17.7 | 0.00 | 0.00 | 0.00 | 54 | 1001.9 |
| 20260507211537 | 11 | 250 | 9.7 | 17.7 | 0.00 | 0.00 | 0.00 | 54 | 1001.8 |
| 20260507211013 | 11 | 251 | 11.3 | 24.1 | 0.00 | 0.00 | 0.00 | 52 | 1001.8 |
| 20260507210508 | 11 | 259 | 9.7 | 24.1 | 0.00 | 0.00 | 0.00 | 52 | 1001.8 |
| 20260507210029 | 11 | 218 | 14.5 | 20.9 | 0.00 | 0.00 | 0.00 | 52 | 1001.8 |
| 20260507205510 | 11 | 222 | 8.0 | 20.9 | 0.00 | 0.00 | 0.00 | 54 | 1001.7 |
| 20260507205005 | 11 | 253 | 12.9 | 20.9 | 0.00 | 0.00 | 0.00 | 56 | 1001.7 |
| 20260507204520 | 11 | 270 | 11.3 | 17.7 | 0.00 | 0.00 | 0.00 | 58 | 1001.8 |
| 20260507204006 | 11 | 221 | 9.7 | 16.1 | 0.00 | 0.00 | 0.00 | 57 | 1001.8 |
| 20260507203511 | 11 | 255 | 8.0 | 16.1 | 0.00 | 0.00 | 0.00 | 57 | 1001.7 |
| 20260507203022 | 10 | 250 | 9.7 | 20.9 | 0.00 | 0.03 | 0.00 | 59 | 1001.7 |
| 20260507202510 | 10 | 273 | 11.3 | 20.9 | 0.00 | 0.03 | 0.00 | 59 | 1001.7 |
| 20260507202008 | 10 | 261 | 11.3 | 25.7 | 0.00 | 0.03 | 0.00 | 60 | 1001.7 |
| 20260507201536 | 10 | 236 | 9.7 | 27.4 | 0.00 | 0.03 | 0.00 | 62 | 1001.7 |
| 20260507201010 | 11 | 256 | 14.5 | 27.4 | 0.00 | 0.03 | 0.00 | 61 | 1001.7 |
| 20260507200511 | 10 | 252 | 12.9 | 24.1 | 0.00 | 0.03 | 0.00 | 64 | 1001.7 |
| 20260507200035 | 11 | 262 | 12.9 | 24.1 | 0.00 | 0.03 | 0.00 | 64 | 1001.8 |
| 20260507195508 | 11 | 250 | 9.7 | 25.7 | 0.00 | 0.03 | 0.00 | 65 | 1001.7 |
| 20260507195009 | 11 | 263 | 12.9 | 29.0 | 0.00 | 0.03 | 0.00 | 63 | 1001.7 |
| 20260507194530 | 11 | 221 | 14.5 | 29.0 | 0.00 | 0.03 | 0.00 | 60 | 1001.7 |
| 20260507194009 | 11 | 287 | 11.3 | 20.9 | 0.00 | 0.05 | 0.00 | 59 | 1001.6 |
| 20260507193506 | 12 | 277 | 9.7 | 20.9 | 0.00 | 0.05 | 0.00 | 58 | 1001.6 |
| 20260507193024 | 11 | 246 | 11.3 | 20.9 | 0.00 | 0.05 | 0.00 | 58 | 1001.5 |
| 20260507192506 | 11 | 265 | 11.3 | 19.3 | 0.00 | 0.08 | 0.00 | 60 | 1001.6 |
| 20260507192007 | 11 | 291 | 11.3 | 19.3 | 0.00 | 0.08 | 0.00 | 58 | 1001.6 |
| 20260507191526 | 11 | 263 | 12.9 | 20.9 | 0.00 | 0.08 | 0.00 | 57 | 1001.6 |
| 20260507191007 | 11 | 278 | 9.7 | 20.9 | 0.00 | 0.08 | 0.00 | 57 | 1001.7 |
| 20260507190507 | 11 | 283 | 12.9 | 20.9 | 0.00 | 0.08 | 0.00 | 54 | 1001.7 |
| 20260507190026 | 11 | 252 | 12.9 | 19.3 | 0.00 | 0.10 | 0.00 | 52 | 1001.8 |
| 20260507185508 | 12 | 272 | 11.3 | 20.9 | 0.00 | 0.10 | 0.00 | 51 | 1001.8 |
| 20260507185013 | 11 | 252 | 6.4 | 20.9 | 0.00 | 0.10 | 0.00 | 55 | 1001.8 |
| 20260507184533 | 11 | 299 | 11.3 | 19.3 | 0.00 | 0.13 | 0.00 | 55 | 1001.9 |
| 20260507184009 | 11 | 268 | 12.9 | 25.7 | 0.00 | 0.13 | 0.00 | 53 | 1002.0 |
| 20260507183512 | 11 | 289 | 14.5 | 27.4 | 0.00 | 0.15 | 0.00 | 53 | 1002.1 |
| 20260507183033 | 11 | 236 | 12.9 | 27.4 | 0.00 | 0.15 | 0.00 | 55 | 1002.1 |
| 20260507182506 | 11 | 286 | 12.9 | 27.4 | 0.00 | 0.15 | 0.00 | 56 | 1002.1 |
| 20260507182009 | 11 | 245 | 16.1 | 27.4 | 0.00 | 0.15 | 0.00 | 60 | 1002.1 |
| 20260507181529 | 11 | 248 | 12.9 | 29.0 | 0.00 | 0.15 | 0.00 | 61 | 1002.2 |
| 20260507181008 | 11 | 274 | 14.5 | 29.0 | 0.00 | 0.15 | 0.00 | 63 | 1002.2 |
| 20260507180510 | 11 | 259 | 14.5 | 25.7 | 0.00 | 0.15 | 0.00 | 64 | 1002.2 |
| 20260507180041 | 10 | 273 | 12.9 | 27.4 | 0.00 | 0.15 | 0.00 | 66 | 1002.2 |
| 20260507175507 | 10 | 235 | 16.1 | 27.4 | 0.00 | 0.15 | 0.00 | 67 | 1002.2 |
| 20260507175009 | 10 | 259 | 14.5 | 24.1 | 0.00 | 0.15 | 0.00 | 66 | 1002.2 |
| 20260507174526 | 10 | 292 | 14.5 | 22.5 | 0.00 | 0.15 | 0.00 | 65 | 1002.2 |
| 20260507174009 | 10 | 223 | 8.0 | 25.7 | 0.00 | 0.15 | 0.00 | 67 | 1002.3 |
| 20260507173509 | 10 | 243 | 11.3 | 25.7 | 0.00 | 0.15 | 0.00 | 66 | 1002.4 |
| 20260507173035 | 10 | 259 | 11.3 | 22.5 | 0.00 | 0.15 | 0.00 | 68 | 1002.4 |
| 20260507172510 | 10 | 240 | 14.5 | 22.5 | 0.00 | 0.15 | 0.00 | 68 | 1002.5 |
| 20260507172011 | 10 | 331 | 11.3 | 22.5 | 0.00 | 0.15 | 0.00 | 67 | 1002.6 |
| 20260507171523 | 10 | 276 | 14.5 | 24.1 | 0.00 | 0.15 | 0.00 | 69 | 1002.6 |
| 20260507171013 | 10 | 273 | 14.5 | 24.1 | 0.00 | 0.15 | 0.00 | 68 | 1002.6 |
| 20260507170508 | 10 | 281 | 12.9 | 22.5 | 0.00 | 0.15 | 0.00 | 66 | 1002.7 |
| 20260507170043 | 10 | 231 | 12.9 | 22.5 | 0.00 | 0.15 | 0.00 | 64 | 1002.8 |
| 20260507165510 | 10 | 250 | 12.9 | 20.9 | 0.00 | 0.15 | 0.00 | 64 | 1002.8 |
| 20260507165011 | 10 | 252 | 12.9 | 20.9 | 0.00 | 0.15 | 0.00 | 61 | 1002.9 |
| 20260507164530 | 10 | 252 | 12.9 | 19.3 | 0.00 | 0.15 | 0.00 | 62 | 1002.9 |
| 20260507164010 | 10 | 252 | 12.9 | 19.3 | 0.00 | 0.15 | 0.00 | 63 | 1002.9 |
| 20260507163510 | 10 | 252 | 6.4 | 20.9 | 0.00 | 0.15 | 0.00 | 64 | 1002.9 |
| 20260507163030 | 10 | 277 | 8.0 | 20.9 | 0.00 | 0.15 | 0.00 | 61 | 1003.0 |
| 20260507162510 | 10 | 249 | 11.3 | 17.7 | 0.00 | 0.15 | 0.00 | 63 | 1003.0 |
| 20260507162014 | 10 | 244 | 11.3 | 17.7 | 0.00 | 0.15 | 0.00 | 62 | 1003.1 |
| 20260507161530 | 10 | 265 | 11.3 | 20.9 | 0.00 | 0.15 | 0.00 | 64 | 1003.1 |
| 20260507161010 | 10 | 269 | 11.3 | 20.9 | 0.00 | 0.15 | 0.00 | 61 | 1003.2 |
| 20260507160507 | 9 | 255 | 6.4 | 19.3 | 0.00 | 0.15 | 0.00 | 68 | 1003.2 |
| 20260507160026 | 8 | 352 | 8.0 | 20.9 | 0.00 | 0.15 | 0.00 | 67 | 1003.2 |
| 20260507155506 | 8 | 284 | 12.9 | 20.9 | 0.00 | 0.15 | 0.00 | 67 | 1003.3 |
| 20260507155012 | 8 | 266 | 8.0 | 19.3 | 0.00 | 0.15 | 0.00 | 69 | 1003.5 |
| 20260507154527 | 8 | 253 | 8.0 | 19.3 | 0.00 | 0.15 | 0.00 | 70 | 1003.5 |
| 20260507154014 | 8 | 261 | 12.9 | 19.3 | 0.00 | 0.15 | 0.00 | 70 | 1003.5 |
| 20260507153509 | 8 | 279 | 11.3 | 19.3 | 0.00 | 0.15 | 0.00 | 72 | 1003.5 |
| 20260507153030 | 8 | 265 | 9.7 | 19.3 | 0.00 | 0.15 | 0.00 | 73 | 1003.5 |
| 20260507152512 | 8 | 263 | 8.0 | 22.5 | 0.00 | 0.15 | 0.00 | 74 | 1003.5 |
| 20260507152010 | 8 | 249 | 11.3 | 22.5 | 0.00 | 0.15 | 0.00 | 75 | 1003.5 |
| 20260507151533 | 8 | 273 | 11.3 | 24.1 | 0.00 | 0.15 | 0.00 | 76 | 1003.6 |
| 20260507151010 | 8 | 273 | 14.5 | 24.1 | 0.00 | 0.15 | 0.00 | 76 | 1003.6 |
| 20260507150504 | 8 | 252 | 14.5 | 20.9 | 0.00 | 0.15 | 0.00 | 77 | 1003.5 |
| 20260507150003 | 7 | 275 | 11.3 | 22.5 | 0.00 | 0.15 | 0.00 | 81 | 1003.6 |
| 20260507145502 | 7 | 345 | 9.7 | 22.5 | 0.00 | 0.15 | 0.00 | 82 | 1003.6 |
| 20260507145002 | 7 | 233 | 6.4 | 17.7 | 0.00 | 0.15 | 0.00 | 84 | 1003.6 |
| 20260507144506 | 7 | 282 | 8.0 | 20.9 | 0.00 | 0.15 | 0.00 | 85 | 1003.7 |
| 20260507144003 | 6 | 273 | 12.9 | 20.9 | 0.00 | 0.15 | 0.00 | 85 | 1003.7 |
| 20260507143503 | 6 | 242 | 11.3 | 19.3 | 0.00 | 0.15 | 0.00 | 86 | 1003.8 |
| 20260507143012 | 6 | 247 | 11.3 | 19.3 | 0.00 | 0.15 | 0.00 | 86 | 1003.8 |
| 20260507142506 | 6 | 278 | 9.7 | 19.3 | 0.00 | 0.15 | 0.00 | 85 | 1003.9 |
| 20260507142005 | 6 | 275 | 8.0 | 16.1 | 0.00 | 0.15 | 0.00 | 85 | 1003.9 |
| 20260507141516 | 6 | 264 | 4.8 | 14.5 | 0.00 | 0.15 | 0.00 | 85 | 1004.0 |
| 20260507141007 | 6 | 279 | 6.4 | 16.1 | 0.00 | 0.15 | 0.00 | 85 | 1004.0 |
| 20260507140507 | 6 | 259 | 8.0 | 17.7 | 0.00 | 0.15 | 0.00 | 85 | 1003.9 |
| 20260507140019 | 6 | 262 | 9.7 | 17.7 | 0.00 | 0.15 | 0.00 | 85 | 1003.9 |
| 20260507135510 | 6 | 324 | 4.8 | 14.5 | 0.00 | 0.15 | 0.00 | 88 | 1003.9 |
| 20260507135003 | 6 | 242 | 6.4 | 12.9 | 0.00 | 0.15 | 0.00 | 87 | 1003.9 |
| 20260507134503 | 6 | 281 | 4.8 | 11.3 | 0.00 | 0.15 | 0.00 | 89 | 1003.9 |
| 20260507134003 | 6 | 327 | 3.2 | 9.7 | 0.00 | 0.15 | 0.00 | 92 | 1003.8 |
| 20260507133503 | 5 | 250 | 4.8 | 9.7 | 0.00 | 0.15 | 0.00 | 91 | 1004.0 |
| 20260507133011 | 5 | 269 | 3.2 | 9.7 | 0.00 | 0.15 | 0.00 | 91 | 1004.0 |
| 20260507132503 | 5 | 272 | 3.2 | 8.0 | 0.00 | 0.15 | 0.00 | 92 | 1003.9 |
| 20260507132006 | 5 | 243 | 3.2 | 12.9 | 0.00 | 0.15 | 0.00 | 92 | 1004.1 |
| 20260507131514 | 4 | 317 | 4.8 | 12.9 | 0.00 | 0.15 | 0.00 | 91 | 1004.2 |
| 20260507131006 | 4 | 298 | 4.8 | 12.9 | 0.00 | 0.15 | 0.00 | 92 | 1004.2 |
| 20260507130508 | 4 | 253 | 4.8 | 14.5 | 0.00 | 0.15 | 0.00 | 92 | 1004.2 |
| 20260507130018 | 4 | 238 | 8.0 | 14.5 | 0.00 | 0.15 | 0.00 | 92 | 1004.2 |
| 20260507125508 | 4 | 238 | 4.8 | 11.3 | 0.00 | 0.15 | 0.00 | 93 | 1004.2 |
| 20260507125007 | 4 | 249 | 4.8 | 11.3 | 0.00 | 0.15 | 0.00 | 93 | 1004.2 |
| 20260507124524 | 4 | 264 | 4.8 | 16.1 | 0.00 | 0.15 | 0.00 | 93 | 1004.2 |
| 20260507124003 | 3 | 234 | 4.8 | 16.1 | 0.00 | 0.15 | 0.00 | 93 | 1004.1 |
| 20260507123503 | 3 | 261 | 9.7 | 14.5 | 0.00 | 0.15 | 0.00 | 92 | 1004.0 |
| 20260507123008 | 3 | 257 | 8.0 | 14.5 | 0.00 | 0.15 | 0.00 | 93 | 1004.0 |
| 20260507122504 | 3 | 234 | 8.0 | 12.9 | 0.00 | 0.15 | 0.00 | 93 | 1004.1 |
| 20260507122003 | 3 | 235 | 3.2 | 16.1 | 0.00 | 0.15 | 0.00 | 93 | 1004.0 |
| 20260507121513 | 3 | 275 | 4.8 | 16.1 | 0.00 | 0.15 | 0.00 | 93 | 1004.1 |
| 20260507121007 | 3 | 237 | 8.0 | 12.9 | 0.00 | 0.15 | 0.00 | 93 | 1004.1 |
| 20260507120503 | 3 | 229 | 6.4 | 14.5 | 0.00 | 0.15 | 0.00 | 93 | 1004.0 |
| 20260507120018 | 3 | 268 | 4.8 | 17.7 | 0.00 | 0.15 | 0.00 | 93 | 1004.1 |
| 20260507115506 | 3 | 268 | 4.8 | 17.7 | 0.00 | 0.15 | 0.00 | 93 | 1004.2 |
| 20260507115008 | 3 | 257 | 8.0 | 17.7 | 0.00 | 0.15 | 0.00 | 93 | 1004.2 |
| 20260507114520 | 3 | 268 | 6.4 | 16.1 | 0.00 | 0.15 | 0.00 | 93 | 1004.0 |
| 20260507114007 | 3 | 253 | 9.7 | 16.1 | 0.00 | 0.15 | 0.00 | 93 | 1004.2 |
| 20260507113508 | 4 | 236 | 6.4 | 12.9 | 0.00 | 0.15 | 0.00 | 93 | 1004.2 |
| 20260507113027 | 3 | 257 | 4.8 | 12.9 | 0.00 | 0.15 | 0.00 | 93 | 1004.2 |
| 20260507112504 | 4 | 238 | 4.8 | 12.9 | 0.00 | 0.15 | 0.00 | 93 | 1004.2 |
| 20260507112004 | 4 | 276 | 3.2 | 16.1 | 0.00 | 0.15 | 0.00 | 92 | 1004.1 |
| 20260507111516 | 4 | 260 | 6.4 | 17.7 | 0.00 | 0.15 | 0.00 | 92 | 1003.9 |
| 20260507111006 | 4 | 267 | 9.7 | 17.7 | 0.00 | 0.15 | 0.00 | 92 | 1003.8 |
| 20260507110502 | 4 | 263 | 8.0 | 17.7 | 0.00 | 0.15 | 0.00 | 91 | 1003.8 |
| 20260507110016 | 5 | 252 | 6.4 | 17.7 | 0.00 | 0.15 | 0.00 | 90 | 1003.9 |
| 20260507105504 | 5 | 245 | 9.7 | 16.1 | 0.00 | 0.15 | 0.00 | 91 | 1003.9 |
| 20260507105009 | 6 | 239 | 4.8 | 9.7 | 0.00 | 0.15 | 0.00 | 92 | 1003.7 |
| 20260507104520 | 5 | 240 | 3.2 | 6.4 | 0.00 | 0.15 | 0.00 | 92 | 1003.6 |
| 20260507104006 | 5 | 243 | 3.2 | 4.8 | 0.00 | 0.15 | 0.00 | 92 | 1003.6 |
| 20260507103506 | 5 | 213 | 1.6 | 4.8 | 0.00 | 0.15 | 0.00 | 92 | 1003.6 |
| 20260507103022 | 5 | 221 | 1.6 | 4.8 | 0.00 | 0.15 | 0.00 | 92 | 1003.5 |
| 20260507102506 | 5 | 247 | 1.6 | 4.8 | 0.00 | 0.15 | 0.00 | 92 | 1003.5 |
| 20260507102015 | 5 | 234 | 3.2 | 8.0 | 0.00 | 0.15 | 0.00 | 92 | 1003.6 |
| 20260507101509 | 5 | 227 | 3.2 | 8.0 | 0.00 | 0.15 | 0.00 | 92 | 1003.6 |
| 20260507101002 | 5 | 249 | 4.8 | 6.4 | 0.00 | 0.15 | 0.00 | 92 | 1003.5 |
| 20260507100505 | 5 | 239 | 1.6 | 3.2 | 0.00 | 0.15 | 0.00 | 92 | 1003.7 |
| 20260507100015 | 5 | 192 | 0.0 | 3.2 | 0.00 | 0.15 | 0.00 | 92 | 1003.8 |
| 20260507095508 | 5 | 192 | 1.6 | 3.2 | 0.00 | 0.15 | 0.00 | 92 | 1003.8 |
| 20260507095006 | 5 | 227 | 0.0 | 4.8 | 0.00 | 0.15 | 0.00 | 92 | 1003.7 |
| 20260507094518 | 5 | 247 | 3.2 | 9.7 | 0.00 | 0.15 | 0.00 | 92 | 1003.8 |
| 20260507094007 | 5 | 248 | 1.6 | 11.3 | 0.00 | 0.15 | 0.00 | 91 | 1003.9 |
| 20260507093515 | 5 | 263 | 4.8 | 11.3 | 0.00 | 0.15 | 0.00 | 91 | 1003.9 |
| 20260507093021 | 5 | 248 | 3.2 | 4.8 | 0.00 | 0.15 | 0.00 | 91 | 1003.9 |
| 20260507092507 | 5 | 282 | 3.2 | 9.7 | 0.00 | 0.15 | 0.00 | 91 | 1003.9 |
| 20260507092011 | 5 | 280 | 1.6 | 9.7 | 0.00 | 0.15 | 0.00 | 90 | 1003.8 |
| 20260507091535 | 5 | 265 | 3.2 | 8.0 | 0.00 | 0.15 | 0.00 | 90 | 1004.0 |
| 20260507091008 | 6 | 250 | 0.0 | 6.4 | 0.00 | 0.15 | 0.00 | 90 | 1003.9 |
| 20260507090507 | 6 | 250 | 1.6 | 6.4 | 0.00 | 0.15 | 0.00 | 90 | 1004.0 |
| 20260507090012 | 6 | 267 | 3.2 | 4.8 | 0.00 | 0.15 | 0.00 | 90 | 1004.0 |
| 20260507085503 | 6 | 263 | 1.6 | 3.2 | 0.00 | 0.15 | 0.00 | 90 | 1003.9 |
| 20260507085005 | 6 | 229 | 1.6 | 4.8 | 0.00 | 0.15 | 0.00 | 90 | 1003.9 |
| 20260507084534 | 6 | 254 | 3.2 | 4.8 | 0.00 | 0.15 | 0.00 | 89 | 1004.1 |
| 20260507084006 | 6 | 240 | 1.6 | 4.8 | 0.00 | 0.15 | 0.00 | 89 | 1004.1 |
| 20260507083511 | 6 | 311 | 0.0 | 3.2 | 0.00 | 0.15 | 0.00 | 89 | 1004.0 |
| 20260507083022 | 6 | 12 | 0.0 | 3.2 | 0.00 | 0.15 | 0.00 | 88 | 1004.0 |
| 20260507082508 | 6 | 46 | 0.0 | 3.2 | 0.00 | 0.15 | 0.00 | 88 | 1003.9 |
| 20260507082011 | 6 | 46 | 0.0 | 3.2 | 0.00 | 0.15 | 0.00 | 88 | 1003.8 |
| 20260507081528 | 6 | 46 | 0.0 | 3.2 | 0.00 | 0.15 | 0.00 | 88 | 1003.8 |
| 20260507081007 | 6 | 46 | 0.0 | 3.2 | 0.00 | 0.15 | 0.00 | 88 | 1003.7 |
| 20260507080511 | 6 | 46 | 0.0 | 3.2 | 0.00 | 0.15 | 0.00 | 88 | 1003.8 |
| 20260507080030 | 6 | 42 | 0.0 | 3.2 | 0.00 | 0.15 | 0.00 | 89 | 1003.8 |
| 20260507075508 | 6 | 71 | 1.6 | 3.2 | 0.00 | 0.15 | 0.00 | 88 | 1003.8 |
| 20260507075010 | 6 | 64 | 1.6 | 3.2 | 0.00 | 0.15 | 0.00 | 89 | 1003.9 |
| 20260507074512 | 6 | 64 | 0.0 | 3.2 | 0.00 | 0.15 | 0.00 | 88 | 1003.9 |
| 20260507074005 | 6 | 78 | 1.6 | 3.2 | 0.00 | 0.15 | 0.00 | 89 | 1004.0 |
| 20260507073503 | 6 | 78 | 0.0 | 3.2 | 0.00 | 0.15 | 0.00 | 89 | 1004.1 |
| 20260507073022 | 6 | 57 | 1.6 | 3.2 | 0.00 | 0.15 | 0.00 | 89 | 1004.1 |
| 20260507072507 | 6 | 42 | 1.6 | 3.2 | 0.00 | 0.15 | 0.00 | 89 | 1004.2 |
| 20260507072006 | 6 | 42 | 0.0 | 3.2 | 0.00 | 0.15 | 0.00 | 89 | 1004.2 |
| 20260507071525 | 6 | 42 | 0.0 | 1.6 | 0.00 | 0.15 | 0.00 | 89 | 1004.3 |
| 20260507071009 | 6 | 42 | 0.0 | 1.6 | 0.00 | 0.15 | 0.00 | 89 | 1004.3 |